Vorticity
nan nan nan nan nan nan nan nan nan nan nan nan nan nan nan nan nan nan nan nan nan nan nan nan nan nan nan nan nan nan nan nan nan
nan 10 11 18 15 12 9 9 10 9 8 8 9 7 7 8 8 7 6 8 10 7 6 6 6 6 8 9 10 9 9 9 nan
nan 8 10 10 14 14 11 10 10 10 10 8 9 9 8 8 8 8 6 8 7 5 6 9 9 9 10 10 10 10 9 10 nan
nan 7 9 11 12 12 13 12 11 11 9 8 10 11 9 9 10 9 8 9 8 8 8 7 8 9 10 11 11 11 9 6 nan
nan 7 10 11 12 13 12 13 12 13 11 9 9 11 11 9 7 7 10 12 10 9 9 8 9 9 9 10 10 10 10 8 nan
nan 7 8 9 11 12 13 12 12 12 12 13 11 10 8 11 8 7 10 11 11 9 10 8 7 11 11 9 8 9 10 9 nan
nan 6 7 9 9 11 12 12 12 11 12 11 14 12 7 8 8 9 11 12 10 9 10 9 10 10 10 10 10 11 9 9 nan
nan 8 6 7 9 9 9 10 10 11 10 10 9 8 10 11 9 8 10 12 12 12 11 12 11 10 10 10 12 16 15 13 nan
nan 6 8 7 8 8 8 8 8 9 9 10 10 8 9 9 9 10 9 10 13 12 11 11 12 11 11 13 14 14 11 13 nan
nan 7 8 8 7 7 8 8 9 9 8 8 10 10 11 11 11 11 10 9 10 11 11 11 11 10 11 11 19 14 6 10 nan
nan 8 8 7 7 10 9 10 9 9 10 10 10 10 10 10 10 10 10 9 8 9 9 8 9 9 10 10 14 12 10 9 nan
nan 11 6 7 8 12 8 9 9 9 9 10 9 9 9 10 10 7 7 6 6 7 8 8 10 9 8 8 13 11 5 4 nan
nan 16 10 10 11 9 9 8 9 8 9 8 9 9 9 8 7 7 6 7 7 8 8 8 6 8 9 10 10 8 11 8 nan
nan 32 16 9 12 6 10 8 9 8 8 11 9 8 8 8 7 7 9 7 7 7 8 9 9 9 10 12 13 13 14 7 nan
nan 33 16 11 7 10 10 10 7 10 9 10 11 10 7 6 5 4 8 10 8 9 9 10 11 12 10 12 18 17 14 11 nan
nan 21 12 15 13 12 8 11 11 9 10 10 8 6 8 7 6 8 6 8 11 11 9 8 10 11 11 11 11 14 20 22 nan
nan 9 11 9 11 13 10 11 12 12 10 9 8 6 6 7 7 8 9 8 7 8 10 10 10 11 10 10 10 10 8 8 nan
nan 8 11 15 11 11 10 7 10 11 9 8 9 10 7 8 10 10 9 8 8 10 10 9 10 9 7 8 9 7 7 8 nan
nan 14 16 13 12 10 9 8 7 10 9 9 8 8 5 5 9 10 8 10 14 18 15 14 10 5 3 6 8 6 4 8 nan
nan nan nan nan nan nan nan nan nan nan nan nan nan nan nan nan nan nan nan nan nan nan nan nan nan nan nan nan nan nan nan nan nan
CAPE
193 376 610 877 1064 875 890 982 1156 1383 1716 2957 2974 3252 3918 4221 3622 2814 2680 2584 2387 2082 2018 2038 2569 2260 2494 3418 3686 3541 4144 3466 3455
118 0 6 143 585 1174 1115 950 1101 1465 1706 2361 2697 2739 3148 3304 3705 3551 3047 3729 2479 2378 3104 2426 2761 2851 3307 4201 4371 3987 4031 2956 2903
0 0 24 538 647 985 1456 1309 1105 1483 1756 2461 2767 2234 2728 2875 2992 3387 3237 3013 3313 2991 2763 2535 3654 3497 4073 3956 4101 3705 4117 3238 3601
0 12 25 72 353 846 1484 1759 1598 1469 1757 1960 2390 2364 2170 2459 2633 2821 3066 2919 2936 2991 3052 3573 3673 4287 4608 4651 4393 4020 3830 3918 3442
138 85 90 251 609 872 937 1569 1940 2035 2062 2020 2279 2400 2169 2117 2342 2237 2161 2575 2403 2499 2909 2648 3297 4520 5011 4603 4546 4500 4034 3617 2867
457 322 297 621 890 1787 2134 2298 2305 2166 2227 2121 2008 2182 2138 2418 2368 2402 2293 1937 1831 1995 2631 2913 2810 3568 4926 4615 4468 4392 4165 4316 3858
594 352 460 610 983 1715 2452 2602 2725 2672 2454 2336 1899 2059 2027 1995 1944 1545 1613 1665 1923 1920 2058 2224 2587 3424 4759 4557 4497 4294 4257 3853 3974
624 242 160 673 1210 2434 2718 2877 3052 2964 2614 2675 2525 2553 2651 2317 1600 1517 1576 1704 2204 2598 2812 2849 3419 4329 4309 4613 4236 4468 4089 3565 3733
789 428 173 637 1502 2655 2970 3331 3445 3407 3181 3281 3267 3193 2347 1855 1952 2169 4293 4114 4447 4666 4343 3982 4131 4037 3853 3718 4042 1612 1258 1448 3947
1108 697 305 555 1267 2037 2444 3019 3098 3225 3121 2848 2775 2586 2459 3562 4928 5033 4183 3831 3650 3578 3523 3522 3531 3440 3555 3869 3528 920 694 464 1519
1232 1144 552 536 807 1168 1883 2133 2340 2477 2964 3346 2978 3695 4454 4472 4447 4114 3433 2913 2484 2122 1801 1530 1504 1728 2077 2278 2463 1023 739 350 1183
894 1504 994 503 703 1156 1569 1844 2459 3212 3675 3818 4337 4275 4259 3896 3428 2796 1998 1295 914 841 806 759 690 765 1103 1219 1020 374 107 40 339
94 1313 1443 708 636 1613 1728 2300 2996 3420 3454 3862 3943 3773 3378 2858 2173 1289 739 721 795 814 770 565 278 304 542 339 557 296 0 18 51
583 1113 1670 1139 1180 2086 2343 2856 3068 3385 3541 3593 3545 3452 2756 1764 1135 878 954 1125 1107 1057 1140 1142 1068 838 1254 1101 789 825 27 0 130
1016 1502 1799 1259 2256 2358 2803 2866 3336 3477 3665 3832 3282 2324 1500 1379 1182 886 728 1101 1264 1308 1357 1659 1746 1750 1080 96 1265 569 265 0 0
2109 2385 2399 2630 2646 2846 3107 3261 3289 3632 3926 3033 1931 1431 1244 1056 1020 1131 1257 1416 1592 852 1465 552 113 0 0 0 0 15 0 0 0
3407 3463 3384 3172 3750 3648 3469 3392 3445 3387 2351 1870 1634 1626 1369 1261 1361 1307 1508 770 492 165 51 23 0 0 3 1 1 4 9 7 0
3259 3551 3869 3824 3493 3240 2930 2359 2527 1829 1815 1566 1308 1116 1068 1243 1209 887 926 692 45 16 187 5 4 6 10 17 6 0 0 0 0
2880 2595 2674 2757 2691 2450 2112 2020 1593 1323 1210 1081 1177 1404 824 588 318 130 47 45 47 19 0 0 0 0 9 7 0 0 0 0 0
2106 2694 2937 2601 1913 1242 1372 1222 892 1023 897 1084 723 637 619 348 44 70 132 136 120 68 83 0 0 0 0 0 0 0 0 0 0